Location: Newark
(35.8967°N, 14.4625°E)
Time: 03:50:16
(UTC+00:00)

N. Korean satellite - Pass Details

Date: 15 November 2019
Orbit: 456 x 506 km, 97.2° (Epoch: 05 December)

Event Time Altitude Azimuth Distance (km) Brightness Sun altitude
Rises 04:43:50 0° 14° (NNE) 2,613 10.3 -11.2°
Reaches altitude 10° 04:45:57 10° 16° (NNE) 1,721 9.4 -10.8°
Maximum altitude 04:49:39 70° 100° (E) 537 7.0 -10.1°
Drops below altitude 10° 04:53:17 10° 185° (S) 1,690 9.5 -9.4°
Sets 04:55:21 0° 188° (S) 2,561 10.4 -9.0°
